Theta_e
312 314 318 318 318 317 316 317 319 323 326 327 328 329 331 330 330 332 334 334 334 333 332 332 332 332 330 330 325 321 323 325 326 327 327 328 325 318 316 316 319 320 320
312 314 314 318 319 320 321 320 320 321 321 324 325 328 327 326 324 327 330 333 333 334 333 332 332 332 332 331 332 326 322 324 324 325 326 326 327 328 326 321 317 318 322
310 310 310 312 314 318 319 320 320 320 321 321 322 324 327 325 325 323 328 330 331 333 333 332 331 331 332 332 333 330 326 324 327 329 329 329 328 328 329 328 326 320 318
311 312 314 318 317 319 318 319 319 319 320 321 319 318 323 322 321 324 326 328 329 330 332 333 332 332 333 332 332 330 327 327 327 326 326 328 330 333 330 329 329 327 325
312 313 312 313 314 317 317 317 319 319 321 319 317 321 321 324 322 323 326 328 329 329 328 328 327 327 326 326 326 326 325 325 325 325 325 324 324 323 326 327 328 327 328
313 313 313 313 313 314 314 313 314 317 319 318 316 320 322 322 323 326 326 324 324 326 326 326 326 325 325 323 323 322 323 323 324 323 324 323 323 321 325 323 323 326 327
313 314 313 313 313 313 313 313 313 315 316 315 316 317 319 321 320 321 320 320 320 321 323 323 321 321 318 321 320 320 321 320 320 320 320 321 323 323 323 325 325 323 323
312 312 311 310 309 309 310 310 310 310 311 311 311 315 319 319 319 319 318 316 316 317 317 317 317 316 317 317 316 316 315 315 315 317 319 319 319 321 323 324 324 325 327
309 308 308 307 308 307 307 307 307 306 305 306 311 309 313 314 312 318 317 315 314 313 313 312 312 314 315 316 316 316 317 315 314 314 315 316 317 319 320 321 322 324 324
306 306 305 304 301 299 298 298 298 298 299 301 303 302 306 308 310 311 313 311 309 304 304 300 299 300 301 305 307 310 310 310 311 311 312 313 314 316 316 317 317 319 321
300 299 298 297 296 295 295 294 294 294 294 294 294 295 297 300 308 305 305 304 301 302 299 295 305 304 303 304 302 300 298 297 297 296 301 307 312 312 313 314 313 314 316
298 298 296 295 294 294 294 294 293 293 293 293 293 293 293 297 300 300 299 299 299 298 296 304 301 303 298 295 293 293 293 293 293 293 293 294 298 304 308 310 310 312 313
298 297 296 294 294 293 293 293 293 293 293 293 293 292 292 292 292 293 297 297 297 295 296 297 302 300 298 294 292 293 292 292 292 292 292 293 293 293 293 297 304 309 311
297 297 295 294 293 293 293 293 293 293 293 292 292 292 291 291 291 291 293 294 295 295 295 298 298 298 296 294 292 291 290 291 291 291 291 291 291 292 292 293 293 294 297
298 297 296 295 293 293 293 293 293 293 292 292 292 291 291 291 290 290 290 291 293 294 294 296 296 296 295 293 293 291 290 290 290 290 290 290 291 291 291 291 292 292 292
300 299 297 296 294 293 292 293 293 292 292 291 291 291 290 290 289 289 289 289 291 293 293 293 293 293 293 292 293 292 290 289 289 290 290 290 290 290 290 291 291 291 291
300 300 298 296 294 292 292 293 292 292 291 291 290 290 290 289 289 289 289 289 291 292 292 291 291 291 291 291 291 291 290 290 290 289 289 289 289 289 290 290 290 290 290
300 300 299 298 295 293 292 292 292 291 291 290 290 289 289 289 289 288 289 289 290 291 290 289 290 291 291 291 290 290 290 289 290 290 290 289 289 289 289 288 289 289 289
301 301 300 299 296 293 291 292 291 291 290 290 290 289 289 288 288 289 289 289 290 290 290 290 290 290 290 290 290 290 289 289 289 290 288 288 291 289 288 288 288 288 288
301 301 301 299 298 294 291 291 291 290 290 289 289 289 288 288 288 288 288 289 290 290 289 290 290 289 290 290 290 289 289 288 289 288 288 289 289 288 287 288 288 288 288
302 301 301 300 298 296 291 291 291 290 289 289 289 288 288 288 288 287 287 287 287 288 288 288 289 290 289 289 289 289 288 288 288 287 288 289 288 287 287 287 287 289 288
303 302 302 301 299 297 292 291 290 290 289 289 288 288 288 288 288 288 287 287 287 286 287 288 288 288 288 288 288 288 288 287 287 287 287 287 286 287 286 286 287 289 287
304 303 302 301 300 297 293 290 290 290 289 288 288 287 287 288 287 287 287 287 287 288 288 288 288 287 287 287 287 286 286 287 287 286 286 286 286 286 285 286 287 287 286
304 303 302 301 300 298 294 290 290 289 289 288 288 287 287 287 287 287 287 287 287 287 287 287 287 287 287 286 286 286 286 286 286 286 286 286 286 285 286 286 285 285 287
305 304 302 301 300 298 293 290 290 289 288 288 287 287 287 287 287 287 287 287 287 287 287 287 287 287 287 287 287 287 286 286 285 285 285 285 285 285 285 284 285 286 287
304 303 302 300 299 297 292 290 289 288 288 287 287 287 287 287 287 287 287 287 287 286 287 287 286 286 286 286 285 285 284 284 284 284 284 284 284 284 284 283 285 284 284
Wind_Speed
12 11 11 11 11 13 13 15 16 17 18 20 22 24 22 27 28 26 27 29 28 28 27 27 27 26 26 25 25 26 24 22 21 20 18 17 16 16 16 17 17 17 16
9 10 10 9 10 11 12 14 15 17 18 19 21 21 24 27 27 28 27 28 28 29 29 29 29 28 27 26 25 24 25 22 21 21 21 21 20 19 17 18 19 19 19
9 9 10 10 10 10 11 12 13 14 17 17 16 20 22 24 25 27 25 25 31 28 28 29 29 28 26 25 24 23 25 24 22 21 23 22 22 22 23 21 20 20 21
9 10 9 9 10 10 10 10 11 13 14 15 20 20 20 24 23 23 24 24 24 22 27 30 24 25 24 20 20 20 17 21 23 20 20 21 23 25 24 24 25 23 22
7 7 8 8 10 8 9 12 12 11 15 16 16 17 18 16 19 19 18 19 22 19 17 12 8 3 9 9 10 11 13 16 16 19 21 24 26 27 26 26 27 27 25
5 7 9 10 11 11 11 12 12 12 11 15 15 14 12 11 11 11 14 20 24 22 18 19 14 4 7 6 10 11 13 19 22 22 20 18 20 27 28 29 27 21 26
5 6 7 9 10 12 13 14 12 10 12 15 11 13 9 7 7 8 9 8 8 8 11 7 4 5 10 9 14 17 18 20 21 21 21 21 23 23 23 24 28 29 33
5 5 6 8 11 12 12 12 13 13 11 14 14 10 8 6 3 9 10 12 13 14 14 14 14 15 21 18 22 24 20 22 21 22 23 24 25 26 26 27 26 26 32
5 6 8 10 10 10 11 11 11 12 12 11 10 9 5 6 18 7 9 11 15 16 14 14 16 18 21 23 24 29 26 27 25 25 23 22 21 18 23 25 28 30 29
6 8 8 8 9 9 10 11 12 12 11 10 6 7 5 7 5 9 7 14 10 12 13 13 13 13 13 13 16 21 21 22 24 24 26 23 20 21 24 24 30 31 36
7 8 8 9 10 11 12 13 13 12 11 11 10 9 5 2 3 6 13 12 16 9 14 13 11 12 15 15 16 18 20 23 23 22 19 15 17 19 27 29 31 33 34
8 8 9 9 10 11 12 12 12 12 11 10 9 8 7 4 8 7 12 14 17 12 16 3 13 11 12 13 15 17 19 20 21 21 20 20 24 27 28 25 19 27 29
9 9 9 9 9 10 11 11 11 12 12 12 11 9 8 7 8 8 10 12 14 19 12 9 6 8 15 15 19 19 19 18 19 18 18 20 22 22 23 24 26 31 31
10 9 9 10 10 11 11 11 11 12 12 12 13 13 11 10 9 9 9 11 14 12 14 5 10 11 17 20 20 18 17 17 17 17 17 18 19 19 23 25 25 28 32
12 11 11 12 12 12 11 11 12 12 12 13 12 12 12 12 12 11 10 8 7 9 18 2 8 9 19 19 22 23 20 17 19 18 18 18 19 21 23 24 24 27 28
12 13 13 13 13 13 13 13 14 13 13 13 13 13 13 13 12 12 11 9 9 10 15 13 18 20 19 18 16 22 21 20 18 18 19 20 21 22 22 24 25 27 28
15 15 14 14 14 14 14 15 15 15 15 14 14 14 13 14 12 12 12 10 10 11 17 24 21 22 23 21 20 20 22 22 20 19 19 18 20 22 21 22 24 26 27
17 16 16 15 15 15 15 16 16 16 15 14 14 15 14 13 13 12 12 11 12 12 15 23 23 23 24 22 22 22 23 19 20 19 20 21 19 17 19 22 23 24 26
20 20 18 17 16 16 16 16 17 16 16 15 15 15 15 15 14 12 13 13 13 13 15 18 24 24 23 23 23 23 23 23 23 21 26 23 16 20 23 22 22 24 24
23 22 20 19 18 18 18 17 18 17 16 16 17 16 16 16 16 15 15 14 13 16 17 17 22 23 22 23 20 22 25 26 25 29 26 17 21 26 26 23 23 22 24
25 24 23 22 20 20 19 19 18 19 18 17 16 17 17 17 17 19 19 19 17 19 19 19 21 21 23 21 22 24 26 25 33 28 26 19 29 31 28 27 24 22 26
28 26 26 24 23 21 21 20 20 20 19 19 18 17 17 19 19 18 19 19 19 20 20 19 22 23 23 23 23 22 27 33 31 28 23 36 33 32 30 27 26 25 28
30 29 28 26 25 22 22 21 21 21 21 20 20 20 20 18 19 20 19 18 17 16 19 22 25 25 25 25 28 30 29 30 34 36 33 35 32 35 33 26 23 28 31
33 31 29 27 25 24 23 22 22 22 22 21 22 21 20 20 19 18 20 19 19 18 20 21 23 26 28 28 27 28 31 34 37 35 26 32 30 37 25 30 35 29 21
35 33 30 28 26 25 24 22 22 22 23 23 22 21 21 20 20 16 19 20 22 21 20 19 22 24 25 25 26 29 30 31 34 32 26 30 33 30 37 41 30 21 20
36 34 31 28 26 26 25 24 22 22 23 23 21 21 20 20 19 17 18 20 23 22 21 24 27 28 25 24 23 22 26 27 29 31 23 22 29 33 33 29 16 27 35
Wind_Direction
310 310 310 306 304 301 300 294 290 287 287 285 286 278 272 278 277 279 271 266 262 259 262 260 257 257 257 255 251 249 250 254 257 263 267 272 273 270 266 263 261 261 261
305 304 305 307 309 310 305 300 300 296 295 285 277 281 285 280 279 279 279 273 272 264 261 262 257 255 256 258 257 250 248 250 254 257 263 265 270 272 275 272 265 261 260
330 332 337 341 333 318 318 312 306 298 298 293 292 285 280 280 283 282 279 278 276 273 269 260 255 252 254 257 255 242 243 245 249 256 259 260 264 267 269 272 273 268 264
352 349 12 347 349 342 337 322 319 320 314 304 304 288 281 283 289 292 289 279 277 274 274 256 247 243 247 257 257 241 247 257 256 257 260 266 268 264 268 266 268 267 267
1 360 9 358 7 5 350 355 343 329 327 324 320 315 305 292 286 289 293 283 265 261 263 319 309 335 348 309 291 268 260 262 270 270 271 271 275 280 275 270 254 258 267
18 10 2 357 357 358 349 345 342 335 323 314 320 331 320 325 312 294 279 276 276 276 295 280 287 280 244 304 295 275 261 261 260 262 261 263 268 273 277 277 279 273 266
344 345 355 3 5 2 353 346 341 336 338 330 334 307 302 294 315 322 343 329 316 293 269 296 298 304 311 280 290 295 287 284 277 273 271 265 262 261 269 274 269 274 274
350 1 8 8 359 345 349 357 358 355 349 346 350 5 337 316 6 329 313 321 308 306 308 299 284 281 276 282 298 278 284 295 284 279 277 274 267 264 263 265 264 269 262
17 12 356 352 346 347 348 352 356 357 360 358 5 18 352 340 332 352 356 355 338 329 317 310 298 291 285 281 271 271 275 275 279 277 280 286 286 287 274 269 263 257 259
343 352 354 347 344 344 343 344 346 348 349 349 12 10 358 333 328 313 297 323 326 339 319 318 311 297 289 282 282 280 281 283 285 286 283 285 291 282 275 280 273 271 266
346 339 336 337 337 340 341 340 339 345 347 344 345 342 338 322 308 302 303 302 297 304 309 331 287 302 292 294 293 298 296 294 296 294 287 276 272 277 272 278 284 282 278
329 330 331 333 336 335 332 332 336 338 340 338 338 332 333 343 299 309 303 303 310 309 313 0 315 299 295 297 302 300 302 303 300 300 297 289 279 274 277 276 289 278 281
315 319 322 325 324 324 327 330 331 334 335 335 334 331 323 308 298 299 299 303 303 309 314 314 263 301 299 307 309 312 308 304 302 301 297 292 292 291 287 278 278 276 277
304 302 310 316 320 326 326 326 327 326 324 324 324 323 322 308 303 294 290 302 314 302 302 307 273 282 299 309 312 312 313 310 307 303 302 297 296 297 293 294 297 290 283
293 299 304 311 317 319 318 319 320 316 314 314 313 313 312 306 307 302 294 286 287 306 311 303 307 290 292 307 310 313 315 311 310 308 305 304 304 303 304 302 303 298 298
292 295 299 303 308 314 315 313 311 310 308 308 309 310 308 305 304 299 297 290 271 261 272 281 289 294 302 303 310 305 312 314 314 309 310 310 309 307 307 305 304 301 303
282 288 292 297 302 305 304 306 306 306 306 305 305 306 305 303 301 300 296 291 278 264 269 288 290 294 303 307 310 311 315 318 316 312 311 311 308 306 306 307 306 304 303
274 278 283 288 292 297 297 300 301 300 300 300 299 299 301 297 297 297 295 293 286 281 277 291 300 308 307 311 310 309 311 318 312 320 308 318 311 303 305 309 308 307 306
269 274 279 285 288 291 293 296 297 297 296 297 296 295 295 293 294 289 290 293 290 289 287 290 301 303 306 310 313 314 319 314 315 302 316 317 309 311 315 311 310 308 307
266 270 276 280 284 287 290 291 293 294 293 289 290 291 290 286 286 284 287 286 288 281 288 286 284 308 309 311 312 310 308 315 309 311 319 317 310 312 318 316 313 311 307
265 268 272 276 281 284 287 290 291 291 289 286 284 286 288 287 287 286 286 288 282 282 286 287 291 294 298 305 304 306 308 301 303 319 321 314 303 314 315 315 312 309 304
262 264 268 271 275 282 286 288 288 288 286 285 288 287 285 289 292 289 291 288 286 286 288 283 285 291 293 295 300 301 294 306 310 312 304 303 310 310 311 313 307 304 307
260 262 266 269 274 279 284 287 287 288 287 287 286 284 286 285 282 291 291 289 291 290 283 288 290 293 291 287 293 299 301 300 297 299 303 302 304 305 308 307 303 300 306
258 260 263 265 270 277 281 284 285 287 287 286 285 284 284 285 284 282 286 289 290 282 279 276 276 282 288 292 294 295 295 293 294 297 299 293 298 301 304 295 304 308 303
256 258 260 264 270 277 280 281 281 284 286 287 285 283 283 283 281 278 281 287 290 291 295 292 287 288 291 292 290 291 290 293 293 295 296 291 295 292 293 303 309 306 294
256 257 258 262 269 274 278 281 279 280 281 284 285 285 284 285 284 279 279 287 288 292 293 291 291 295 292 286 286 283 289 290 293 295 299 291 289 294 304 303 296 291 305